Location: Observatoire
(46.1952°N, 5.3391°E)
Time: 06:33:19
(UTC+01:00)

Tiros 1 despin weight - Pass Details

Date: 21 February 2026
Orbit: 556 x 593 km, 48.2° (Epoch: 13 March)

Event Time Altitude Azimuth Distance (km) Brightness Sun altitude
Rises 14:53:28 0° 238° (WSW) 2,743 ? 27.2°
Reaches altitude 10° 14:55:44 10° 235° (SW) 1,844 ? 27.0°
Maximum altitude 14:59:53 61° 155° (SSE) 634 ? 26.6°
Drops below altitude 10° 15:04:02 10° 75° (ENE) 1,838 ? 26.2°
Sets 15:06:17 0° 72° (ENE) 2,733 ? 25.9°
